星链-36294(STARLINK-36294)

导读

STARLINK-36294(NORAD编号68531)是美国SpaceX公司星链(Starlink)星座的一颗第一代低轨互联网卫星,属于SpaceX大规模星座组网中的一颗卫星,工作在原550公里左右近地轨道,采用Ku和Ka通信频段,是星链为全球提供高速卫星互联网服务的组成部分,服务于偏远地区、移动场景等联网需求。2026年SpaceX计划将包括该卫星在内的约4400颗星链卫星轨道高度降至480公里,降低碰撞风险,提升太空运行安全性,减少太空碎片隐患。

Basic Information
目录编号:
68531
目录名称:
STARLINK-36294
国际标识:
2026-068Z
轨道中心:
EARTH
卫星名称:
星链-36294
卫星全名:
星链-36294(STARLINK-36294)
卫星状态:
在轨 (已飞行158 天)
发射日期:
2026-03-30 UTC
国别 :
美国 (US)
星等 :
--
Orbit Information
数据来源 国际轨道数据
星历时间: 2026-09-04T03:15:42+0800
11小时前
查看轨道信息
半长轴: 6840.84km
偏心率: 0.0001078
轨道倾角: 53.160°
近地点辐角 77.119°
升交点赤经 19.904°
平近点角 282.993°
近地点: 461.965km
远地点: 463.441km
周期: 93.848分钟
每日圈数: 15.344002
Detailed Information
固有亮度:
5
最大亮度:
2.5
卫星平台:
Starlink V1.0
覆盖范围:
全球
运营商:
太空探索技术公司
运营商所在国:
美国
制造商(研发单位):
太空探索技术公司
制造商所在国:
美国
使用方式:
暂无
Satellite Introduction
Starlink 计划是 SpaceX 推出的全球卫星互联网项目,通过发射低轨道卫星,为全球尤其是偏远地区提供高速、低延迟的互联网服务。自 2019 年起,Starlink 已部署数千颗卫星,旨在缩小全球数字鸿沟,推动互联网普及。该项目还为军事、航空等行业提供通信支持,带来广泛经济效益。
2D Orbit Map
3D Orbit Map
Orbit Altitude Analysis Chart
Orbit Inclination Analysis Chart
Orbit Comprehensive Analysis Chart
View Comprehensive Chart
Conjunction Data List
Event ID Objects TCA Miss Dist (km) Collision Risk Probability Collision Risk Index (CRI) Action
CDM_260904-003805-897106-853123
2026-09-04T
00:38:34+0000
0.634 km
远距离
9.852897E-5 中风险 0.75
CDM_260904-173806-785206-853121
2026-09-04T
17:38:30+0000
1.014 km
极远距离
1.605698E-5 中风险 0.59
CDM_260903-054204-873706-853121
2026-09-03T
05:42:18+0000
1.160 km
极远距离
1.115897E-5 中风险 0.56
CDM_260904-201005-897106-853121
2026-09-04T
20:10:57+0000
1.407 km
极远距离
7.163399E-6 低风险 0.52
CDM_260905-014406-035906-853121
2026-09-05T
01:44:40+0000
1.421 km
极远距离
7.037186E-6 低风险 0.52
CDM_260904-183705-897106-853122
2026-09-04T
18:37:10+0000
1.576 km
极远距离
4.944974E-6 低风险 0.49
CDM_260905-003806-473806-853121
2026-09-05T
00:38:14+0000
1.386 km
极远距离
4.356874E-6 低风险 0.48
CDM_260905-034806-785206-853121
2026-09-05T
03:48:08+0000
1.493 km
极远距离
4.309593E-6 低风险 0.48
CDM_260905-045705-172906-853121
2026-09-05T
04:57:41+0000
1.670 km
极远距离
4.120571E-6 低风险 0.47
CDM_260903-230405-897106-853122
2026-09-03T
23:04:47+0000
2.037 km
极远距离
2.389196E-6 低风险 0.43